Left ArrowRight Arrow

Hourly Observations for July 13, 2017

Temp ( °F °C ) Dew Point ( °F °C ) Humidity (%) Winds ( mph kmh ) Pressure ( in mb ) Visibility ( mi km ) Precip ( " mm )
12:53 am 00:53 Mostly Clear with Light Rain 77 25 68 20 74 74 S 6 9 30.02 1017 10 16 0.00 0.03
1:53 am 01:53 Mostly Cloudy with Light Rain 77 25 68 20 74 74 Calm 30.02 1017 10 16 0.00 0.03
2:53 am 02:53 Mostly Cloudy with Light Rain 76 24.4 70 21.1 82 82 ENE 6 9 30.01 1016 10 16 0.00 0.03
3:53 am 03:53 Clear with Light Rain 76 24.4 70 21.1 82 82 ENE 3 6 30.00 1016 10 16 0.00 0.03
4:53 am 04:53 Mostly Clear with Light Rain 77 25 73 22.8 88 88 WNW 9 15 30.00 1016 10 16 0.00 0.03
5:53 am 05:53 Mostly Cloudy 76 24.4 71 21.7 85 85 E 3 6 30.01 1016 10 16 0.00 0.03
6:53 am 06:53 Partly Cloudy 77 25 69 20.6 77 77 E 6 9 30.02 1017 10 16 0.00 0.00
7:53 am 07:53 Mostly Cloudy 81 27.2 70 21.1 69 69 S 5 7 30.04 1017 10 16 0.00 0.00
8:53 am 08:53 Partly Cloudy 83 28.3 68 20 61 61 SSE 6 9 30.03 1017 10 16 0.00 0.00
9:53 am 09:53 Sunny 84 28.9 70 21.1 63 63 SW 10 17 30.04 1017 10 16 0.00 0.00
10:53 am 10:53 Partly Cloudy 84 28.9 71 21.7 65 65 SW 9 15 30.04 1017 10 16 0.00 0.00
11:53 am 11:53 Partly Cloudy 84 28.9 72 22.2 67 67 WSW 9 15 30.04 1017 10 16 0.00 0.00
12:44 pm 12:44 Mostly Cloudy 85 29.4 72 22.2 65 65 SW 10 17 30.03 1017 10 16 0.00 0.00
12:53 pm 12:53 Partly Cloudy 86 30 73 22.8 65 65 WSW 10 17 30.02 1017 10 16 0.00 0.00
1:53 pm 13:53 Partly Cloudy 86 30 71 21.7 61 61 W 14 22 30.01 1016 10 16 0.00 0.00
2:24 pm 14:24 Cloudy 87 30.6 72 22.2 61 61 W 15 24 30.00 1016 10 16 0.00 0.00
2:31 pm 14:31 Cloudy 87 30.6 71 21.7 59 59 W 15 24 30.00 1016 10 16 0.00 0.00
2:53 pm 14:53 Mostly Cloudy 87 30.6 71 21.7 59 59 W 14 22 30.00 1016 10 16 0.00 0.00
3:53 pm 15:53 Mostly Cloudy 85 29.4 71 21.7 63 63 W 15 24 29.99 1016 10 16 0.00 0.00
4:53 pm 16:53 Mostly Cloudy 84 28.9 70 21.1 63 63 WSW 10 17 29.99 1016 10 16 0.00 0.00
5:53 pm 17:53 Mostly Cloudy 84 28.9 69 20.6 61 61 SSE 8 13 29.98 1015 10 16 0.00 0.00
6:53 pm 18:53 Mostly Cloudy 83 28.3 70 21.1 65 65 S 9 15 29.98 1015 10 16 0.00 0.00
7:53 pm 19:53 Mostly Cloudy 83 28.3 68 20 61 61 SSE 9 15 30.00 1016 10 16 0.00 0.00
8:53 pm 20:53 Cloudy 82 27.8 69 20.6 65 65 SE 8 13 30.02 1017 10 16 0.00 0.00
9:53 pm 21:53 Cloudy 82 27.8 69 20.6 65 65 SE 9 15 30.03 1017 10 16 0.00 0.00
10:53 pm 22:53 Cloudy 82 27.8 69 20.6 65 65 SE 8 13 30.04 1017 10 16 0.00 0.00
11:21 pm 23:21 Cloudy 80 26.7 69 20.6 69 69 SE 9 15 30.03 1017 10 16 0.00 0.00
11:53 pm 23:53 Cloudy 80 26.7 69 20.6 69 69 SE 9 15 30.04 1017 10 16 0.00 0.00

Powered by Vaisala Xweather